FREGAT R/B, 40297

Orbit data source: Space-Track

FREGAT R/B, 40297 is space debris in HEO originally from a launch on Thu, 30 Oct 2014 UTC launched from the Plesetsk Missile And Space Complex (PKMTR). Debris objects in space refer to the collection of defunct objects orbiting the Earth. Examples of debris include non-operational satellites, rocket bodies, and fragments generated from explosions, collisions, or faulty payload assembly.

Loading next visibility...
Identifier
40297, 2014-069B
Orbit
HEO
Country
Flag of CISCIS
Related business
Manufacturer
Lavochkin
Mission
Spacecraft
Bus & Motor
FREGAT, Unknown motor
Mass
1,000 kg wet, 1,000 kg dry
Launch date (UTC)
2014-10-30 (12 years ago)
Launch vehicle
Unknown
Launch site
Plesetsk Missile And Space Complex (PKMTR)
Object type
Payload
Rocket body
Debris
Shape & HBR
Cyl, 1.7 m
Radar Cross Section
8.354 m², Large (>1 m²)

Expand to show TLE details & history
Last TLE update: 11 months ago

TLE from 11 months ago
0 FREGAT R/B
1 40297U 14069B   25278.28752855 -.00001062  00000-0  00000-0 0  9998
2 40297  63.6601 230.8208 6735147 272.0727  18.3004  2.00511010 80104
Epoch: 2025-10-05T06:54Z
TLE epoch observation values (Epoch: 2025-10-05T06:54:02.466Z)
Latitude
0.00023°
Longitude
113.07039°
Altitude
7,787.55 km
Speed
6.425 km/s
True Right ascension
15h 23m 09s
True Declination
0° 00' 01"
Sunlit
Object was in daylight at epoch
Visualization orbit readout
Latitude
Unknown
Longitude
Unknown
Altitude
Unknown
Speed
Unknown
Apparent Right ascension
Unknown
Apparent Declination
Unknown
Sunlit
N/A
Visualization observer readout
Local Sidereal Time
14:29:57
Azimuth
Unknown
Elevation
Unknown
Doppler factor
Unknown
Orbital elements
Apogee altitude
38,077.389 km
Perigee altitude
2,294.673 km
Semi-major axis
26,564.168 km
Eccentricity
0.67351
Inclination
63.6601°
RAAN
230.8208°
Arg. of periapsis
272.0727°
True anomaly
87.87762°
Mean anomaly
18.3004°
Eccentric anomaly
46.11152°
Mean motion
0.5013 °/min
Orbital period
718.13 mins
BSTAR
0
Loading maneuver chart data...
Computing Atmospheric mass density...
Loading historical data...
Loading historical data...
Loading historical data...
Loading historical data...
Loading historical data...
Loading historical data...
Loading historical data...
Other satellites on launch #69 in the year 2014 (2014-10-30 UTC)

Documentation

Showing up to 5 results
|